Regional Weather Roundup
Issued by NWS Little Rock, AR

Home | Current Version | Previous Version | Graphics & Text | Print | Product List | Glossary On
Versions: 1 2 3 4 5 6 7 8 9 10 11 12 13 14 15 16 17 18 19 20 21 22 23 24 25 26 27 28 29 30 31 32
000
ASUS44 KLZK 210615
RWRLZK

WEATHER ROUNDUP FOR ARKANSAS
NATIONAL WEATHER SERVICE LITTLE ROCK AR
100 AM CDT SAT APR 21 2018

NOTE: "FAIR" INDICATES FEW OR NO CLOUDS BELOW 12,000 FEET WITH NO
SIGNIFICANT WEATHER AND/OR OBSTRUCTIONS TO VISIBILITY.

ARZ001-003-010-029-210700-
NORTHWEST ARKANSAS

CITY           SKY/WX    TMP DP  RH WIND       PRES   REMARKS
FAYETTEVILLE   CLOUDY    53  28  38 CALM      30.20R
6HR MIN TEMP:  53; 6HR MAX TEMP:  66;

FORT SMITH     CLOUDY    56  34  43 E3        30.20R
6HR MIN TEMP:  56; 6HR MAX TEMP:  67;

HARRISON       CLOUDY    48  25  40 SE5       30.22S
6HR MIN TEMP:  48; 6HR MAX TEMP:  63;

BENTONVILLE    CLOUDY    55  24  30 E7        30.23R
6HR MIN TEMP:  55; 6HR MAX TEMP:  67;

ROGERS         CLOUDY    55  23  28 E8        30.22R
6HR MIN TEMP:  55; 6HR MAX TEMP:  66;

SILOAM SPGS    PTCLDY    53  30  41 E5        30.20R
6HR MIN TEMP:  53; 6HR MAX TEMP:  66;

HIGHFILL       CLOUDY    54  26  34 E6        30.21R
6HR MIN TEMP:  54; 6HR MAX TEMP:  67;

$$

ARZ004-005-016-210700-
NORTH CENTRAL ARKANSAS

CITY           SKY/WX    TMP DP  RH WIND       PRES   REMARKS
BATESVILLE     PTCLDY    49  32  52 CALM      30.25S
6HR MIN TEMP:  47; 6HR MAX TEMP:  63;

FLIPPIN        CLOUDY    50  26  39 E3        30.25R
6HR MIN TEMP:  46; 6HR MAX TEMP:  64;

MTN HOME       CLOUDY    50  27  40 E6        30.23
6HR MIN TEMP:  50; 6HR MAX TEMP:  64;

$$

ARZ040-041-210700-
WEST CENTRAL ARKANSAS

CITY           SKY/WX    TMP DP  RH WIND       PRES   REMARKS
MENA           CLOUDY    46  39  76 CALM      30.18S
MOUNT IDA      CLEAR     46  39  76 CALM      30.16S
6HR MIN TEMP:  46; 6HR MAX TEMP:  64;

$$

ARZ009-017-025-026-028-210700-
NORTHEAST ARKANSAS

CITY           SKY/WX    TMP DP  RH WIND       PRES   REMARKS
CORNING        FAIR      54  36  50 E14       30.27S
JONESBORO      FAIR      52  37  56 NE10      30.25F
6HR MIN TEMP:  50; 6HR MAX TEMP:  63;

WALNUT RIDGE   FAIR      47  35  63 NE9       30.26S
6HR MIN TEMP:  47; 6HR MAX TEMP:  61;

BLYTHEVILLE    FAIR      52  34  50 E9        30.27F
6HR MIN TEMP:  52; 6HR MAX TEMP:  65;

$$

ARZ022-023-033-042-044-210700-
CENTRAL ARKANSAS

CITY           SKY/WX    TMP DP  RH WIND       PRES   REMARKS
LITTLE ROCK    PTCLDY    48  39  71 E6        30.20S
6HR MIN TEMP:  48; 6HR MAX TEMP:  64;

N LITTLE ROCK    N/A     52  38  60 E7        30.18S
6HR MIN TEMP:  52; 6HR MAX TEMP:  63;

JACKSONVILLE   CLEAR     49  38  65 E8        30.20S
6HR MIN TEMP:  46; 6HR MAX TEMP:  65;

CONWAY         MOCLDY    54  34  47 MISG      30.20S
SEARCY         FAIR      51  37  58 NE7       30.22F
6HR MIN TEMP:  50; 6HR MAX TEMP:  65;

HOT SPRINGS    CLEAR     49  39  68 E3        30.19S
6HR MIN TEMP:  49; 6HR MAX TEMP:  66;

RUSSELLVILLE   CLEAR     52  30  43 CALM      30.20R
6HR MIN TEMP:  52; 6HR MAX TEMP:  64;

CLINTON        FAIR      41  36  81 CALM      30.23S
$$

ARZ036-210700-
EAST ARKANSAS

CITY           SKY/WX    TMP DP  RH WIND       PRES   REMARKS
WEST MEMPHIS   FAIR      55  36  48 E9        30.22F
6HR MIN TEMP:  52; 6HR MAX TEMP:  67;

$$

ARZ050-053-066-070-073-210700-
SOUTHWEST ARKANSAS

CITY           SKY/WX    TMP DP  RH WIND       PRES   REMARKS
ARKADELPHIA    FAIR      46  44  93 CALM      30.20R
6HR MIN TEMP:  46; 6HR MAX TEMP:  65;

CAMDEN         FAIR      45  41  87 CALM      30.18F
TEXARKANA      CLEAR     50  40  68 CALM      30.15F
6HR MIN TEMP:  48; 6HR MAX TEMP:  65;

EL DORADO      FAIR      46  44  93 CALM      30.18S
6HR MIN TEMP:  46; 6HR MAX TEMP:  65;

DE QUEEN       CLEAR     50  41  71 CALM      30.16R
6HR MIN TEMP:  50; 6HR MAX TEMP:  65;

$$

ARZ056-057-069-210700-
SOUTHEAST ARKANSAS

CITY           SKY/WX    TMP DP  RH WIND       PRES   REMARKS
PINE BLUFF     FAIR      53  41  63 CALM      30.19F
6HR MIN TEMP:  50; 6HR MAX TEMP:  66;

STUTTGART      FAIR      53  41  63 E6        30.21S
6HR MIN TEMP:  53; 6HR MAX TEMP:  67;

MONTICELLO     FAIR      48  42  80 CALM      30.19F
6HR MIN TEMP:  48; 6HR MAX TEMP:  66;


$$






USA.gov is the U.S. government's official web portal to all federal, state and local government web resources and services.